This demonstration page uses our WeatherBlox Daily Observations layout. Learn more.

Left ArrowRight Arrow

Hourly Observations for October 8, 2016

Temp ( °F °C ) Dew Point ( °F °C ) Humidity (%) Winds ( mph kmh ) Pressure ( in mb ) Visibility ( mi km ) Precip ( " mm )
12:15 am 00:15 Clear 46 8 32 0 57 57 SSW 8 13 30.27 1025 10 16 0.00 0.00
12:35 am 00:35 Clear 48 9 30 -1 50 50 SSW 9 15 30.27 1025 10 16 0.00 0.00
12:55 am 00:55 Clear 48 9 30 -1 50 50 SSW 9 15 30.27 1025 10 16 0.00 0.00
1:15 am 01:15 Clear 48 9 32 0 54 54 SSW 10 17 30.27 1025 10 16 0.00 0.00
1:35 am 01:35 Clear 48 9 32 0 54 54 SSW 12 19 30.24 1024 10 16 0.00 0.00
1:55 am 01:55 Clear 48 9 32 0 54 54 SSW 12 19 30.24 1024 10 16 0.00 0.00
2:15 am 02:15 Clear 48 9 30 -1 50 50 SSW 12 19 30.27 1025 10 16 0.00 0.00
2:35 am 02:35 Clear 46 8 30 -1 53 53 SSW 12 19 30.27 1025 10 16 0.00 0.00
2:55 am 02:55 Clear 46 8 30 -1 53 53 SSW 10 17 30.27 1025 10 16 0.00 0.00
3:15 am 03:15 Clear 46 8 30 -1 53 53 SSW 13 20 30.27 1025 10 16 0.00 0.00
3:35 am 03:35 Clear 46 8 30 -1 53 53 SSW 13 20 30.24 1024 10 16 0.00 0.00
3:55 am 03:55 Clear 45 7 30 -1 57 57 SSW 13 20 30.24 1024 10 16 0.00 0.00
4:15 am 04:15 Clear 45 7 30 -1 57 57 SSW 13 20 30.24 1024 10 16 0.00 0.00
4:35 am 04:35 Clear 43 6 30 -1 61 61 SSW 9 15 30.27 1025 10 16 0.00 0.00
4:55 am 04:55 Clear 43 6 30 -1 61 61 SSW 9 15 30.27 1025 10 16 0.00 0.00
5:15 am 05:15 Clear 43 6 30 -1 61 61 SSW 9 15 30.27 1025 10 16 0.00 0.00
5:35 am 05:35 Clear 43 6 30 -1 61 61 SSW 12 19 30.27 1025 10 16 0.00 0.00
5:55 am 05:55 Clear 45 7 30 -1 57 57 SSW 15 24 30.24 1024 10 16 0.00 0.00
6:15 am 06:15 Clear 45 7 30 -1 57 57 SSW 12 19 30.24 1024 10 16 0.00 0.00
6:35 am 06:35 Clear 45 7 30 -1 57 57 SSW 10 17 30.27 1025 10 16 0.00 0.00
6:55 am 06:55 Clear 43 6 30 -1 61 61 SSW 9 15 30.30 1026 10 16 0.00 0.00
7:15 am 07:15 Clear 41 5 30 -1 66 66 SSW 8 13 30.30 1026 10 16 0.00 0.00
7:35 am 07:35 Clear 41 5 30 -1 66 66 SSW 7 11 30.30 1026 10 16 0.00 0.00
7:55 am 07:55 Sunny 41 5 30 -1 66 66 SSW 8 13 30.30 1026 10 16 0.00 0.00
8:15 am 08:15 Sunny 43 6 32 0 66 66 SSW 13 20 30.30 1026 10 16 0.00 0.00
8:35 am 08:35 Sunny 45 7 32 0 61 61 SW 10 17 30.27 1025 10 16 0.00 0.00
8:55 am 08:55 Sunny 46 8 34 1 62 62 SW 13 20 30.27 1025 10 16 0.00 0.00
9:15 am 09:15 Sunny 48 9 34 1 58 58 SW 13 20 30.27 1025 10 16 0.00 0.00
9:35 am 09:35 Sunny 52 11 36 2 54 54 SW 14 22 30.24 1024 10 16 0.00 0.00
9:55 am 09:55 Sunny 54 12 36 2 51 51 SW 16 26 30.24 1024 10 16 0.00 0.00
10:15 am 10:15 Sunny 55 13 36 2 47 47 SW 15 24 30.24 1024 10 16 0.00 0.00
10:35 am 10:35 Sunny 61 16 37 3 42 42 SW 14 22 30.21 1023 10 16 0.00 0.00
10:55 am 10:55 Sunny 63 17 36 2 37 37 SW 20 31 30.21 1023 10 16 0.00 0.00
11:15 am 11:15 Sunny 64 18 37 3 37 37 SW 18 30 30.18 1022 10 16 0.00 0.00
11:35 am 11:35 Sunny 66 19 37 3 35 35 SW 22 35 30.18 1022 10 16 0.00 0.00
11:55 am 11:55 Sunny 66 19 37 3 35 35 SW 17 28 30.18 1022 10 16 0.00 0.00
12:15 pm 12:15 Sunny 66 19 37 3 35 35 SW 22 35 30.15 1021 10 16 0.00 0.00
12:35 pm 12:35 Sunny 68 20 37 3 33 33 SW 22 35 30.15 1021 10 16 0.00 0.00
12:55 pm 12:55 Sunny 70 21 37 3 31 31 SW 22 35 30.15 1021 10 16 0.00 0.00
1:15 pm 13:15 Sunny 72 22 39 4 31 31 SW 16 26 30.12 1020 10 16 0.00 0.00
1:35 pm 13:35 Sunny 72 22 37 3 29 29 SW 20 31 30.09 1019 10 16 0.00 0.00
1:55 pm 13:55 Sunny 73 23 37 3 27 27 SW 15 24 30.09 1019 10 16 0.00 0.00
2:15 pm 14:15 Sunny 73 23 37 3 27 27 WSW 15 24 30.09 1019 10 16 0.00 0.00
2:35 pm 14:35 Sunny 75 24 37 3 25 25 SW 14 22 30.09 1019 10 16 0.00 0.00
2:55 pm 14:55 Sunny 75 24 37 3 25 25 WSW 15 24 30.06 1018 10 16 0.00 0.00
3:15 pm 15:15 Sunny 75 24 37 3 25 25 SW 9 15 30.06 1018 10 16 0.00 0.00
3:35 pm 15:35 Sunny 75 24 36 2 24 24 SSW 5 7 30.06 1018 10 16 0.00 0.00
3:55 pm 15:55 Sunny 77 25 37 3 24 24 SW 9 15 30.03 1017 10 16 0.00 0.00
4:15 pm 16:15 Sunny 77 25 36 2 22 22 W 7 11 30.03 1017 10 16 0.00 0.00
4:35 pm 16:35 Sunny 77 25 36 2 22 22 WSW 6 9 30.03 1017 10 16 0.00 0.00
4:55 pm 16:55 Sunny 77 25 36 2 22 22 W 6 9 30.03 1017 10 16 0.00 0.00
5:15 pm 17:15 Sunny 77 25 36 2 22 22 WNW 6 9 30.03 1017 10 16 0.00 0.00
5:35 pm 17:35 Sunny 77 25 36 2 22 22 Calm 30.03 1017 10 16 0.00 0.00
5:55 pm 17:55 Sunny 75 24 34 1 22 22 Calm 30.06 1018 10 16 0.00 0.00
6:15 pm 18:15 Sunny 75 24 36 2 24 24 Calm 30.06 1018 10 16 0.00 0.00
6:35 pm 18:35 Sunny 73 23 36 2 25 25 Calm 30.09 1019 10 16 0.00 0.00
6:55 pm 18:55 Sunny 72 22 34 1 25 25 N 5 7 30.09 1019 10 16 0.00 0.00
7:15 pm 19:15 Clear 64 18 36 2 34 34 Calm 30.12 1020 9 14 0.00 0.00
7:35 pm 19:35 Clear 68 20 36 2 30 30 ENE 7 11 30.12 1020 10 16 0.00 0.00
7:55 pm 19:55 Clear 64 18 34 1 32 32 NE 8 13 30.12 1020 10 16 0.00 0.00
8:15 pm 20:15 Clear 63 17 34 1 34 34 E 7 11 30.18 1022 10 16 0.00 0.00
8:35 pm 20:35 Clear 63 17 36 2 37 37 E 9 15 30.18 1022 10 16 0.00 0.00
8:55 pm 20:55 Clear 61 16 34 1 36 36 ENE 7 11 30.18 1022 10 16 0.00 0.00
9:15 pm 21:15 Clear 61 16 36 2 39 39 ENE 8 13 30.18 1022 10 16 0.00 0.00
9:35 pm 21:35 Clear 57 14 34 1 41 41 ENE 5 7 30.24 1024 10 16 0.00 0.00
9:55 pm 21:55 Clear 57 14 34 1 41 41 Calm 30.24 1024 10 16 0.00 0.00
10:15 pm 22:15 Clear 55 13 37 3 51 51 NE 14 22 30.24 1024 10 16 0.00 0.00
10:35 pm 22:35 Clear 55 13 39 4 55 55 ENE 10 17 30.27 1025 10 16 0.00 0.00
10:55 pm 22:55 Clear 55 13 41 5 59 59 NE 10 17 30.27 1025 10 16 0.00 0.00
11:15 pm 23:15 Clear 54 12 41 5 63 63 NE 13 20 30.27 1025 10 16 0.00 0.00
11:35 pm 23:35 Clear 54 12 41 5 63 63 NE 13 20 30.27 1025 10 16 0.00 0.00
11:55 pm 23:55 Clear 52 11 41 5 67 67 NE 10 17 30.27 1025 10 16 0.00 0.00

Powered by AerisWeather